Flag for U.S.A. Weather past 2 weeks in Olympia, Washington, U.S.A.

Now
52 °F

Sunny.


Feels Like: 50 °F
Forecast: 34 / 51 °F
Wind: 7 mph from West

Location: Olympia Airport

Current Time: Mar 1, 2015 at 5:18:24 PM

Latest Report: Mar 1, 2015 at 4:54 PM


Visibility: 10 mi

Pressure: 30.02 "Hg

Humidity: 43%

Dew point: 30 °F

Location of OlympiaLocation

Historic Weather in Olympia — Graph

°F

Olympia temperature yesterday

Maximum temperature yesterday: 55 °F (at 1:54 PM)
Minimum temperature yesterday: 31 °F (at 11:54 PM)
Average temperature yesterday: 45 °F

Past Weeks' High & Low Weather Summary

 TemperatureHumidityPressure
High61 °F (Feb 17, 2:54 PM)100% (Feb 14, 11:59 PM)30.46 "Hg (Feb 14, 11:59 PM)
Low24 °F (Feb 23, 6:54 AM)24% (Feb 28, 2:54 PM)29.70 "Hg (Feb 27, 6:54 AM)
Average44 °F79%30.25 "Hg
* Reported Feb 14 3:01 PM — Mar 1 3:54 PM, Olympia, Weather by CustomWeather, © 2015

Note: Actual official high and low records may vary slightly from our data, if they occured in-between our weather recording intervals... More about our weather records

Advertising

Olympia weather history for previous 24 hours

 ConditionsComfort  
Time TempWeatherWind HumidityBarometerVisibility
3:54 PM
Sun, Mar 1
54 °FSunny.7 mph35%30.04 "Hg10 mi
2:54 PM55 °FSunny.12 mph30%30.06 "Hg10 mi
1:54 PM55 °FSunny.8 mph34%30.09 "Hg10 mi
12:54 PM54 °FSunny.7 mph35%30.13 "Hg10 mi
11:54 AM51 °FSunny.8 mph39%30.17 "Hg10 mi
10:54 AM47 °FSunny.5 mph52%30.20 "Hg10 mi
9:54 AM43 °FSunny.5 mph62%30.22 "Hg10 mi
8:54 AM39 °FSunny.3 mph76%30.24 "Hg10 mi
7:54 AM31 °FSunny.5 mph92%30.25 "Hg10 mi
6:54 AM27 °FSunny.5 mph92%30.24 "Hg10 mi
5:54 AM27 °FClear.7 mph92%30.24 "Hg10 mi
4:54 AM26 °FClear.3 mph96%30.24 "Hg8 mi
3:54 AM27 °FClear.3 mph92%30.24 "Hg8 mi
2:54 AM26 °FClear.5 mph92%30.25 "Hg8 mi
1:54 AM31 °FClear.No wind85%30.27 "Hg7 mi
12:54 AM30 °FClear.5 mph89%30.26 "Hg9 mi
11:54 PM
Sat, Feb 28
31 °FClear.3 mph89%30.25 "Hg9 mi
10:54 PM33 °FClear.No wind78%30.25 "Hg10 mi
9:54 PM33 °FClear.No wind78%30.24 "Hg10 mi
8:54 PM33 °FClear.No wind78%30.23 "Hg10 mi
7:54 PM36 °FClear.No wind73%30.22 "Hg10 mi
6:54 PM40 °FClear.3 mph63%30.20 "Hg10 mi
5:54 PM50 °FSunny.5 mph36%30.18 "Hg10 mi
Weather by CustomWeather, © 2015

See weather overviewHow to use our weather pages